TimePDT,TemperatureF,Dew PointF,Humidity,Sea Level PressureIn,VisibilityMPH,Wind Direction,Wind SpeedMPH,Gust SpeedMPH,PrecipitationIn,Events,Conditions,WindDirDegrees,DateUTC
12:55 AM,53.6,28.4,38,30.10,10.0,Calm,Calm,-,N/A,,Clear,0,2012-10-30 07:55:00
1:15 AM,53.6,28.4,38,30.10,10.0,NNW,3.5,-,N/A,,Clear,340,2012-10-30 08:15:00
1:55 AM,55.4,30.2,38,30.10,10.0,Calm,Calm,-,N/A,,Clear,0,2012-10-30 08:55:00
2:15 AM,53.6,30.2,41,30.10,10.0,Calm,Calm,-,N/A,,Clear,0,2012-10-30 09:15:00
2:35 AM,57.2,26.6,31,30.10,10.0,Calm,Calm,-,N/A,,Clear,0,2012-10-30 09:35:00
2:55 AM,53.6,33.8,47,30.10,10.0,Calm,Calm,-,N/A,,Clear,0,2012-10-30 09:55:00
3:15 AM,53.6,32.0,44,30.09,10.0,Calm,Calm,-,N/A,,Clear,0,2012-10-30 10:15:00
3:35 AM,55.4,28.4,36,30.09,10.0,Calm,Calm,-,N/A,,Clear,0,2012-10-30 10:35:00
3:55 AM,53.6,30.2,41,30.09,10.0,Calm,Calm,-,N/A,,Clear,0,2012-10-30 10:55:00
4:15 AM,53.6,28.4,38,30.09,10.0,Calm,Calm,-,N/A,,Clear,0,2012-10-30 11:15:00
4:35 AM,53.6,30.2,41,30.09,10.0,Calm,Calm,-,N/A,,Clear,0,2012-10-30 11:35:00
5:15 AM,50.0,30.2,47,30.10,10.0,Calm,Calm,-,N/A,,Clear,0,2012-10-30 12:15:00
5:35 AM,48.2,32.0,54,30.10,10.0,Calm,Calm,-,N/A,,Clear,0,2012-10-30 12:35:00
5:55 AM,48.2,32.0,54,30.11,10.0,Calm,Calm,-,N/A,,Clear,0,2012-10-30 12:55:00
6:35 AM,48.2,32.0,54,30.11,10.0,Calm,Calm,-,N/A,,Clear,0,2012-10-30 13:35:00
6:55 AM,48.2,32.0,54,30.12,10.0,Calm,Calm,-,N/A,,Clear,0,2012-10-30 13:55:00
7:15 AM,48.2,32.0,54,30.12,10.0,Calm,Calm,-,N/A,,Clear,0,2012-10-30 14:15:00
7:35 AM,50.0,28.4,43,30.13,10.0,Calm,Calm,-,N/A,,Clear,0,2012-10-30 14:35:00
7:55 AM,53.6,30.2,41,30.13,10.0,Calm,Calm,-,N/A,,Clear,0,2012-10-30 14:55:00
8:15 AM,55.4,28.4,36,30.14,10.0,Calm,Calm,-,N/A,,Clear,0,2012-10-30 15:15:00
8:35 AM,57.2,26.6,31,30.14,10.0,Calm,Calm,-,N/A,,Clear,0,2012-10-30 15:35:00
8:55 AM,59.0,26.6,29,30.14,10.0,Calm,Calm,-,N/A,,Clear,0,2012-10-30 15:55:00
9:15 AM,60.8,24.8,25,30.14,10.0,Calm,Calm,-,N/A,,Clear,0,2012-10-30 16:15:00
9:35 AM,62.6,26.6,26,30.15,10.0,Calm,Calm,-,N/A,,Clear,0,2012-10-30 16:35:00
9:55 AM,62.6,26.6,26,30.15,10.0,Calm,Calm,-,N/A,,Clear,0,2012-10-30 16:55:00
10:15 AM,64.4,26.6,24,30.15,10.0,Calm,Calm,-,N/A,,Clear,0,2012-10-30 17:15:00
10:35 AM,66.2,26.6,23,30.15,10.0,Calm,Calm,-,N/A,,Clear,0,2012-10-30 17:35:00
10:55 AM,68.0,26.6,21,30.14,10.0,Calm,Calm,-,N/A,,Clear,0,2012-10-30 17:55:00
11:15 AM,69.8,28.4,21,30.14,10.0,Calm,Calm,-,N/A,,Clear,0,2012-10-30 18:15:00
11:35 AM,71.6,28.4,20,30.13,10.0,Calm,Calm,-,N/A,,Clear,0,2012-10-30 18:35:00
11:55 AM,71.6,30.2,22,30.12,10.0,Calm,Calm,-,N/A,,Clear,0,2012-10-30 18:55:00
12:15 PM,73.4,28.4,19,30.11,10.0,Calm,Calm,-,N/A,,Clear,0,2012-10-30 19:15:00
12:35 PM,75.2,32.0,21,30.10,10.0,Calm,Calm,-,N/A,,Clear,0,2012-10-30 19:35:00
12:55 PM,75.2,32.0,21,30.09,10.0,Calm,Calm,-,N/A,,Clear,0,2012-10-30 19:55:00
1:15 PM,75.2,30.2,19,30.08,10.0,Calm,Calm,-,N/A,,Clear,0,2012-10-30 20:15:00
1:35 PM,75.2,30.2,19,30.07,10.0,NNE,4.6,-,N/A,,Clear,20,2012-10-30 20:35:00
1:55 PM,77.0,28.4,17,30.06,10.0,Calm,Calm,-,N/A,,Clear,0,2012-10-30 20:55:00
2:15 PM,77.0,28.4,17,30.05,10.0,NNE,3.5,-,N/A,,Clear,30,2012-10-30 21:15:00
2:35 PM,77.0,26.6,16,30.04,10.0,ENE,3.5,-,N/A,,Clear,70,2012-10-30 21:35:00
2:55 PM,78.8,24.8,14,30.04,10.0,NE,3.5,-,N/A,,Clear,40,2012-10-30 21:55:00
3:15 PM,80.6,24.8,13,30.04,10.0,NE,6.9,-,N/A,,Clear,50,2012-10-30 22:15:00
3:35 PM,78.8,24.8,14,30.03,10.0,NE,6.9,-,N/A,,Clear,40,2012-10-30 22:35:00
3:55 PM,78.8,26.6,15,30.03,10.0,NNE,9.2,-,N/A,,Clear,30,2012-10-30 22:55:00
4:15 PM,77.0,26.6,16,30.03,10.0,NE,8.1,-,N/A,,Clear,40,2012-10-30 23:15:00
4:35 PM,77.0,26.6,16,30.02,10.0,NNE,6.9,-,N/A,,Clear,30,2012-10-30 23:35:00
4:55 PM,77.0,26.6,16,30.02,10.0,NE,6.9,-,N/A,,Clear,40,2012-10-30 23:55:00
5:15 PM,75.2,28.4,18,30.01,10.0,NE,5.8,-,N/A,,Clear,40,2012-10-31 00:15:00
5:35 PM,73.4,26.6,18,30.01,10.0,NNE,6.9,-,N/A,,Clear,20,2012-10-31 00:35:00
5:55 PM,71.6,28.4,20,30.02,10.0,North,6.9,-,N/A,,Clear,10,2012-10-31 00:55:00
6:15 PM,68.0,26.6,21,30.02,10.0,North,5.8,-,N/A,,Clear,360,2012-10-31 01:15:00
6:35 PM,68.0,26.6,21,30.02,10.0,North,5.8,-,N/A,,Clear,10,2012-10-31 01:35:00
6:55 PM,68.0,26.6,21,30.02,10.0,NNE,5.8,-,N/A,,Clear,20,2012-10-31 01:55:00
7:15 PM,66.2,28.4,24,30.02,10.0,NNE,6.9,-,N/A,,Clear,20,2012-10-31 02:15:00
7:35 PM,64.4,26.6,24,30.02,10.0,NNE,6.9,-,N/A,,Clear,20,2012-10-31 02:35:00
7:55 PM,64.4,28.4,26,30.02,10.0,North,6.9,-,N/A,,Clear,10,2012-10-31 02:55:00
8:15 PM,64.4,26.6,24,30.02,10.0,NNE,5.8,-,N/A,,Clear,20,2012-10-31 03:15:00
8:35 PM,62.6,26.6,26,30.03,10.0,North,5.8,-,N/A,,Clear,360,2012-10-31 03:35:00
8:55 PM,64.4,23.0,21,30.03,10.0,Calm,Calm,-,N/A,,Clear,0,2012-10-31 03:55:00
9:15 PM,66.2,24.8,21,30.04,10.0,Calm,Calm,-,N/A,,Clear,0,2012-10-31 04:15:00
9:35 PM,62.6,26.6,26,30.04,10.0,NNW,4.6,-,N/A,,Clear,340,2012-10-31 04:35:00
9:55 PM,60.8,26.6,27,30.05,10.0,Calm,Calm,-,N/A,,Clear,0,2012-10-31 04:55:00
10:15 PM,62.6,26.6,26,30.05,10.0,Calm,Calm,-,N/A,,Clear,0,2012-10-31 05:15:00
10:35 PM,57.2,28.4,33,30.04,10.0,Calm,Calm,-,N/A,,Clear,0,2012-10-31 05:35:00
10:55 PM,59.0,26.6,29,30.05,10.0,Calm,Calm,-,N/A,,Clear,0,2012-10-31 05:55:00
11:15 PM,57.2,28.4,33,30.05,10.0,Calm,Calm,-,N/A,,Clear,0,2012-10-31 06:15:00
11:35 PM,57.2,28.4,33,30.05,10.0,NNW,3.5,-,N/A,,Clear,330,2012-10-31 06:35:00
11:55 PM,57.2,28.4,33,30.05,10.0,Calm,Calm,-,N/A,,Clear,0,2012-10-31 06:55:00